ANA745 RJOO-RJCH

Flight info

Callsign ANA745
Flight time 1h 19m
Altitude 33000
Route MINAC GUJYO Y13 AKITA Y131 HINAI Y113 TAXIR
Aircraft A321/M-SDE3FGHIRWY/LB1

Departure

Time 2026-04-25 02:08
Airport Osaka Itami International Airport (RJOO)

Arrival

Time 2026-04-25 03:28
Airport Hakodate Airport (RJCH)
Time Latitude Longitude Altitude Speed Heading
2026-04-25 01:26 34.78781 135.44415 50 ft 0 kts 329°
2026-04-25 01:57 34.78744 135.44442 46 ft 4 kts 329°
2026-04-25 01:57 34.78726 135.44456 48 ft 4 kts 319°
2026-04-25 01:57 34.78710 135.44481 48 ft 4 kts 287°
2026-04-25 01:58 34.78705 135.44507 50 ft 4 kts 277°
2026-04-25 01:58 34.78703 135.44536 50 ft 1 kts 271°
2026-04-25 02:01 34.78703 135.44520 50 ft 3 kts 263°
2026-04-25 02:01 34.78683 135.44477 50 ft 9 kts 228°
2026-04-25 02:01 34.78639 135.44428 50 ft 8 kts 223°
2026-04-25 02:02 34.78602 135.44385 49 ft 7 kts 224°
2026-04-25 02:02 34.78555 135.44339 50 ft 9 kts 200°
2026-04-25 02:02 34.78493 135.44335 50 ft 9 kts 179°
2026-04-25 02:02 34.78435 135.44335 50 ft 9 kts 181°
2026-04-25 02:03 34.78361 135.44334 51 ft 11 kts 181°
2026-04-25 02:03 34.78283 135.44333 49 ft 11 kts 180°
2026-04-25 02:03 34.78206 135.44334 50 ft 11 kts 179°
2026-04-25 02:03 34.78145 135.44370 48 ft 10 kts 137°
2026-04-25 02:04 34.78098 135.44429 50 ft 10 kts 134°
2026-04-25 02:04 34.78051 135.44487 50 ft 9 kts 135°
2026-04-25 02:04 34.78005 135.44542 47 ft 9 kts 135°
2026-04-25 02:04 34.77961 135.44595 48 ft 9 kts 135°
2026-04-25 02:05 34.77915 135.44650 49 ft 9 kts 135°
2026-04-25 02:05 34.77853 135.44727 50 ft 15 kts 135°
2026-04-25 02:05 34.77778 135.44816 50 ft 15 kts 135°
2026-04-25 02:05 34.77711 135.44894 49 ft 13 kts 141°
2026-04-25 02:06 34.77635 135.44946 50 ft 12 kts 157°
2026-04-25 02:06 34.77559 135.44986 51 ft 11 kts 155°
2026-04-25 02:06 34.77497 135.45017 48 ft 8 kts 170°
2026-04-25 02:06 34.77452 135.44998 50 ft 6 kts 219°
2026-04-25 02:07 34.77434 135.44956 52 ft 7 kts 263°
2026-04-25 02:07 34.77448 135.44913 58 ft 10 kts 309°
2026-04-25 02:07 34.77510 135.44835 49 ft 20 kts 315°
2026-04-25 02:07 34.77773 135.44517 49 ft 89 kts 315°
2026-04-25 02:08 34.78355 135.43811 50 ft 145 kts 315°
2026-04-25 02:08 34.79144 135.42834 271 ft 168 kts 315°
2026-04-25 02:08 34.79964 135.41825 894 ft 170 kts 317°
2026-04-25 02:08 34.80653 135.40167 1665 ft 175 kts 260°
2026-04-25 02:09 34.80299 135.39281 1972 ft 176 kts 220°
2026-04-25 02:09 34.78805 135.38648 2588 ft 175 kts 184°
2026-04-25 02:09 34.77986 135.38531 2947 ft 176 kts 181°
2026-04-25 02:09 34.76779 135.38440 3478 ft 174 kts 176°
2026-04-25 02:10 34.75608 135.38725 3934 ft 175 kts 152°
2026-04-25 02:10 34.74730 135.39821 4088 ft 192 kts 113°
2026-04-25 02:10 34.74600 135.41474 4214 ft 214 kts 82°
2026-04-25 02:10 34.75131 135.43290 4434 ft 243 kts 64°
2026-04-25 02:11 34.76132 135.45046 5005 ft 259 kts 53°
2026-04-25 02:11 34.77291 135.46750 5827 ft 264 kts 51°
2026-04-25 02:11 34.78476 135.48475 6709 ft 266 kts 52°
2026-04-25 02:11 34.79558 135.50307 7483 ft 268 kts 68°
2026-04-25 02:12 34.79931 135.52522 8295 ft 272 kts 87°
2026-04-25 02:12 34.79861 135.54836 9086 ft 278 kts 94°
2026-04-25 02:12 34.79632 135.57210 9845 ft 283 kts 96°
2026-04-25 02:12 34.79382 135.59627 10354 ft 297 kts 95°
2026-04-25 02:13 34.79159 135.62189 10538 ft 320 kts 93°
2026-04-25 02:13 34.78969 135.64971 10885 ft 336 kts 92°
2026-04-25 02:13 34.78815 135.67867 11508 ft 342 kts 92°
2026-04-25 02:13 34.78727 135.70750 12135 ft 348 kts 88°
2026-04-25 02:14 34.79060 135.73724 12793 ft 354 kts 76°
2026-04-25 02:14 34.79846 135.76542 13408 ft 360 kts 68°
2026-04-25 02:14 34.80768 135.79445 14037 ft 366 kts 69°
2026-04-25 02:14 34.81669 135.82332 14606 ft 372 kts 69°
2026-04-25 02:15 34.82582 135.85292 15165 ft 377 kts 69°
2026-04-25 02:15 34.83509 135.88317 15733 ft 384 kts 69°
2026-04-25 02:15 34.84443 135.91370 16348 ft 388 kts 69°
2026-04-25 02:15 34.85389 135.94466 16947 ft 392 kts 69°
2026-04-25 02:16 34.86349 135.97605 17513 ft 398 kts 69°
2026-04-25 02:16 34.87317 136.00768 18103 ft 402 kts 69°
2026-04-25 02:16 34.88302 136.03983 18619 ft 407 kts 69°
2026-04-25 02:16 34.89295 136.07227 19064 ft 413 kts 69°
2026-04-25 02:17 34.90307 136.10532 19511 ft 418 kts 69°
2026-04-25 02:17 34.91435 136.13804 19928 ft 422 kts 61°
2026-04-25 02:17 34.92999 136.16852 20326 ft 425 kts 50°
2026-04-25 02:17 34.94960 136.19545 20742 ft 427 kts 40°
2026-04-25 02:18 34.97264 136.21834 21156 ft 429 kts 32°
2026-04-25 02:18 34.99686 136.24023 21599 ft 433 kts 32°
2026-04-25 02:18 35.02114 136.26224 22023 ft 439 kts 32°
2026-04-25 02:18 35.04572 136.28466 22451 ft 444 kts 32°
2026-04-25 02:19 35.07061 136.30744 22867 ft 448 kts 32°
2026-04-25 02:19 35.09564 136.33039 23282 ft 454 kts 32°
2026-04-25 02:19 35.12107 136.35371 23705 ft 458 kts 32°
2026-04-25 02:19 35.14664 136.37715 24053 ft 463 kts 31°
2026-04-25 02:20 35.17260 136.40094 24398 ft 468 kts 31°
2026-04-25 02:20 35.19844 136.42464 24815 ft 472 kts 32°
2026-04-25 02:20 35.22512 136.44916 25214 ft 475 kts 31°
2026-04-25 02:20 35.25129 136.47325 25558 ft 478 kts 31°
2026-04-25 02:21 35.27803 136.49792 25911 ft 482 kts 31°
2026-04-25 02:21 35.30488 136.52265 26314 ft 486 kts 31°
2026-04-25 02:21 35.33233 136.54795 26754 ft 490 kts 31°
2026-04-25 02:21 35.35935 136.57287 27069 ft 494 kts 30°
2026-04-25 02:22 35.38696 136.59836 27368 ft 498 kts 30°
2026-04-25 02:22 35.41465 136.62390 27676 ft 501 kts 30°
2026-04-25 02:22 35.44265 136.64974 28004 ft 504 kts 30°
2026-04-25 02:22 35.47067 136.67568 28321 ft 507 kts 30°
2026-04-25 02:23 35.49896 136.70196 28668 ft 510 kts 30°
2026-04-25 02:23 35.52726 136.72829 28992 ft 513 kts 30°
2026-04-25 02:23 35.55584 136.75488 29304 ft 515 kts 30°
2026-04-25 02:23 35.58451 136.78154 29616 ft 518 kts 29°
2026-04-25 02:24 35.61328 136.80832 29943 ft 521 kts 29°
2026-04-25 02:24 35.64224 136.83529 30181 ft 524 kts 29°
2026-04-25 02:24 35.67148 136.86252 30449 ft 526 kts 29°
2026-04-25 02:24 35.70054 136.88963 30715 ft 527 kts 29°
2026-04-25 02:25 35.72996 136.91711 30884 ft 532 kts 29°
2026-04-25 02:25 35.75962 136.94480 31126 ft 535 kts 28°
2026-04-25 02:25 35.78924 136.97255 31435 ft 537 kts 28°
2026-04-25 02:25 35.81903 137.00053 31848 ft 537 kts 28°
2026-04-25 02:26 35.84838 137.02812 32211 ft 536 kts 28°
2026-04-25 02:26 35.87820 137.05609 32469 ft 538 kts 28°
2026-04-25 02:26 35.90799 137.08401 32765 ft 540 kts 27°
2026-04-25 02:26 35.93799 137.11218 33055 ft 542 kts 27°
2026-04-25 02:27 35.96792 137.14037 33154 ft 540 kts 27°
2026-04-25 02:27 36.02685 137.19625 33176 ft 529 kts 27°
2026-04-25 02:28 36.08526 137.25144 33171 ft 528 kts 27°
2026-04-25 02:28 36.14357 137.30648 33186 ft 526 kts 27°
2026-04-25 02:29 36.20123 137.36111 33167 ft 524 kts 27°
2026-04-25 02:29 36.25914 137.41617 33189 ft 523 kts 27°
2026-04-25 02:30 36.31677 137.47098 33181 ft 521 kts 27°
2026-04-25 02:30 36.37430 137.52575 33170 ft 522 kts 27°
2026-04-25 02:31 36.43189 137.58074 33189 ft 523 kts 28°
2026-04-25 02:31 36.48946 137.63599 33204 ft 520 kts 27°
2026-04-25 02:32 36.54683 137.69110 33216 ft 520 kts 26°
2026-04-25 02:32 36.57661 137.71567 33203 ft 509 kts 21°
2026-04-25 02:32 36.60669 137.73895 33224 ft 509 kts 21°
2026-04-25 02:33 36.66649 137.78524 33188 ft 507 kts 21°
2026-04-25 02:33 36.72656 137.83185 33220 ft 510 kts 21°
2026-04-25 02:34 36.78684 137.87876 33203 ft 509 kts 21°
2026-04-25 02:34 36.84671 137.92552 33222 ft 511 kts 21°
2026-04-25 02:35 36.90688 137.97268 33233 ft 510 kts 22°
2026-04-25 02:35 36.96711 138.01993 33208 ft 508 kts 21°
2026-04-25 02:36 37.02683 138.06670 33253 ft 508 kts 22°
2026-04-25 02:36 37.08683 138.11397 33242 ft 508 kts 22°
2026-04-25 02:37 37.14656 138.16111 33232 ft 507 kts 22°
2026-04-25 02:37 37.20617 138.20817 33244 ft 506 kts 22°
2026-04-25 02:38 37.26567 138.25517 33250 ft 505 kts 22°
2026-04-25 02:38 37.32500 138.30215 33253 ft 502 kts 23°
2026-04-25 02:39 37.38351 138.34867 33243 ft 499 kts 23°
2026-04-25 02:39 37.44224 138.39538 33241 ft 499 kts 23°
2026-04-25 02:40 37.50084 138.44205 33264 ft 498 kts 23°
2026-04-25 02:40 37.55928 138.48882 33260 ft 497 kts 23°
2026-04-25 02:41 37.61758 138.53552 33258 ft 494 kts 24°
2026-04-25 02:41 37.67543 138.58187 33259 ft 492 kts 24°
2026-04-25 02:42 37.73325 138.62827 33258 ft 491 kts 24°
2026-04-25 02:42 37.79100 138.67467 33258 ft 491 kts 24°
2026-04-25 02:43 37.84826 138.72082 33258 ft 491 kts 24°
2026-04-25 02:43 37.90586 138.76740 33292 ft 491 kts 26°
2026-04-25 02:44 37.96301 138.81364 33252 ft 485 kts 25°
2026-04-25 02:44 38.01983 138.85971 33264 ft 485 kts 25°
2026-04-25 02:45 38.07663 138.90580 33281 ft 484 kts 26°
2026-04-25 02:45 38.13352 138.95202 33280 ft 484 kts 26°
2026-04-25 02:46 38.19016 138.99814 33287 ft 483 kts 26°
2026-04-25 02:46 38.24677 139.04450 33296 ft 482 kts 26°
2026-04-25 02:47 38.30275 139.09029 33282 ft 481 kts 26°
2026-04-25 02:47 38.35896 139.13630 33278 ft 481 kts 26°
2026-04-25 02:48 38.41512 139.18247 33280 ft 480 kts 26°
2026-04-25 02:48 38.47126 139.22857 33298 ft 479 kts 27°
2026-04-25 02:49 38.52718 139.27457 33312 ft 477 kts 27°
2026-04-25 02:49 38.58284 139.32062 33294 ft 476 kts 27°
2026-04-25 02:50 38.63832 139.36662 33278 ft 475 kts 27°
2026-04-25 02:50 38.69369 139.41247 33279 ft 474 kts 27°
2026-04-25 02:51 38.74920 139.45850 33282 ft 474 kts 27°
2026-04-25 02:51 38.80448 139.50447 33293 ft 473 kts 27°
2026-04-25 02:52 38.85032 139.54259 33297 ft 472 kts 27°
2026-04-25 02:52 38.90533 139.58847 33292 ft 471 kts 27°
2026-04-25 02:53 38.96004 139.63432 33279 ft 470 kts 27°
2026-04-25 02:53 39.01489 139.68027 33288 ft 468 kts 26°
2026-04-25 02:54 39.07284 139.71569 33284 ft 459 kts 16°
2026-04-25 02:54 39.13143 139.74710 33286 ft 458 kts 16°
2026-04-25 02:55 39.19024 139.77879 33276 ft 458 kts 16°
2026-04-25 02:55 39.24925 139.81066 33265 ft 458 kts 16°
2026-04-25 02:56 39.30777 139.84230 33271 ft 458 kts 16°
2026-04-25 02:56 39.36651 139.87411 33297 ft 457 kts 16°
2026-04-25 02:57 39.42506 139.90585 33277 ft 457 kts 16°
2026-04-25 02:57 39.48364 139.93770 33268 ft 457 kts 16°
2026-04-25 02:58 39.54219 139.96965 33281 ft 456 kts 15°
2026-04-25 02:58 39.60077 140.00161 33268 ft 456 kts 16°
2026-04-25 02:59 39.65925 140.03366 33261 ft 456 kts 15°
2026-04-25 02:59 39.71655 140.06837 33263 ft 464 kts 26°
2026-04-25 03:00 39.76929 140.11882 33244 ft 469 kts 31°
2026-04-25 03:00 39.82089 140.16988 33244 ft 469 kts 31°
2026-04-25 03:01 39.87330 140.22166 33253 ft 469 kts 31°
2026-04-25 03:01 39.92482 140.27239 33271 ft 469 kts 31°
2026-04-25 03:02 39.97700 140.32394 33257 ft 469 kts 31°
2026-04-25 03:02 40.02905 140.37562 33270 ft 469 kts 31°
2026-04-25 03:03 40.08102 140.42740 33257 ft 469 kts 31°
2026-04-25 03:03 40.13280 140.47916 33249 ft 469 kts 31°
2026-04-25 03:04 40.18463 140.53091 33244 ft 469 kts 31°
2026-04-25 03:04 40.23644 140.58276 33258 ft 469 kts 31°
2026-04-25 03:05 40.29108 140.62694 33251 ft 454 kts 14°
2026-04-25 03:05 40.32067 140.64007 33239 ft 443 kts
2026-04-25 03:05 40.38091 140.65147 33247 ft 442 kts 357°
2026-04-25 03:06 40.44251 140.66054 33249 ft 451 kts 358°
2026-04-25 03:06 40.50536 140.67015 33244 ft 452 kts 358°
2026-04-25 03:07 40.56746 140.67957 33248 ft 452 kts 358°
2026-04-25 03:07 40.59883 140.68427 32858 ft 451 kts 358°
2026-04-25 03:07 40.63021 140.68890 31863 ft 457 kts 358°
2026-04-25 03:08 40.66163 140.69353 31240 ft 454 kts 359°
2026-04-25 03:08 40.69291 140.69824 30718 ft 450 kts 359°
2026-04-25 03:08 40.72399 140.70300 30187 ft 445 kts 359°
2026-04-25 03:08 40.75459 140.70763 29556 ft 440 kts 359°
2026-04-25 03:09 40.78484 140.71172 28842 ft 433 kts 358°
2026-04-25 03:09 40.81475 140.71531 28118 ft 428 kts 358°
2026-04-25 03:09 40.84430 140.71862 27424 ft 421 kts 358°
2026-04-25 03:09 40.87325 140.72185 26531 ft 414 kts 359°
2026-04-25 03:10 40.90177 140.72509 25658 ft 409 kts 359°
2026-04-25 03:10 40.93000 140.72838 24810 ft 404 kts 360°
2026-04-25 03:10 40.95774 140.73171 23973 ft 399 kts
2026-04-25 03:10 40.98487 140.73505 23020 ft 394 kts
2026-04-25 03:11 41.01198 140.73840 22085 ft 389 kts
2026-04-25 03:11 41.03875 140.74170 21175 ft 384 kts
2026-04-25 03:11 41.06512 140.74494 20312 ft 379 kts
2026-04-25 03:11 41.09103 140.74813 19774 ft 366 kts
2026-04-25 03:12 41.11594 140.75122 19331 ft 353 kts
2026-04-25 03:12 41.14007 140.75418 18878 ft 342 kts
2026-04-25 03:12 41.16340 140.75701 18427 ft 331 kts
2026-04-25 03:12 41.18602 140.75979 17989 ft 321 kts
2026-04-25 03:13 41.20808 140.76249 17585 ft 319 kts
2026-04-25 03:13 41.23018 140.76516 17185 ft 317 kts
2026-04-25 03:13 41.25219 140.76781 16783 ft 317 kts
2026-04-25 03:13 41.27461 140.77045 16382 ft 331 kts
2026-04-25 03:14 41.29774 140.77317 15967 ft 334 kts
2026-04-25 03:14 41.32087 140.77598 15531 ft 333 kts
2026-04-25 03:14 41.34393 140.77885 15113 ft 332 kts
2026-04-25 03:14 41.36661 140.78168 14708 ft 330 kts
2026-04-25 03:15 41.38949 140.78452 14282 ft 328 kts
2026-04-25 03:15 41.41215 140.78728 13805 ft 326 kts 359°
2026-04-25 03:15 41.43473 140.78554 13126 ft 324 kts 345°
2026-04-25 03:15 41.45593 140.77644 12696 ft 315 kts 331°
2026-04-25 03:16 41.47444 140.76164 12282 ft 306 kts 322°
2026-04-25 03:16 41.49184 140.74559 11871 ft 303 kts 323°
2026-04-25 03:16 41.50912 140.72973 11469 ft 301 kts 323°
2026-04-25 03:16 41.52642 140.71389 11057 ft 300 kts 323°
2026-04-25 03:17 41.54359 140.69820 10648 ft 298 kts 323°
2026-04-25 03:17 41.56051 140.68275 10252 ft 297 kts 323°
2026-04-25 03:17 41.57716 140.66761 10079 ft 281 kts 323°
2026-04-25 03:17 41.59283 140.65333 9898 ft 266 kts 323°
2026-04-25 03:18 41.60786 140.63956 9731 ft 256 kts 323°
2026-04-25 03:18 41.62238 140.62619 9354 ft 255 kts 323°
2026-04-25 03:18 41.63697 140.61273 9056 ft 251 kts 323°
2026-04-25 03:18 41.65119 140.59959 8750 ft 247 kts 323°
2026-04-25 03:19 41.66530 140.58652 8323 ft 245 kts 323°
2026-04-25 03:19 41.67927 140.57359 7848 ft 244 kts 323°
2026-04-25 03:19 41.69317 140.56072 7435 ft 240 kts 323°
2026-04-25 03:19 41.70664 140.54829 7138 ft 231 kts 323°
2026-04-25 03:20 41.71982 140.53613 6738 ft 230 kts 323°
2026-04-25 03:20 41.73300 140.52395 6344 ft 230 kts 323°
2026-04-25 03:20 41.74613 140.51181 5959 ft 229 kts 322°
2026-04-25 03:20 41.75894 140.50019 5599 ft 221 kts 327°
2026-04-25 03:21 41.77325 140.49247 5206 ft 219 kts 343°
2026-04-25 03:21 41.78827 140.49081 4809 ft 220 kts
2026-04-25 03:21 41.80304 140.49504 4428 ft 214 kts 16°
2026-04-25 03:21 41.81695 140.50109 4060 ft 206 kts 16°
2026-04-25 03:22 41.82956 140.50848 3976 ft 193 kts 37°
2026-04-25 03:22 41.83742 140.52267 4003 ft 191 kts 71°
2026-04-25 03:22 41.83831 140.54009 3868 ft 187 kts 105°
2026-04-25 03:22 41.83437 140.55634 3673 ft 182 kts 110°
2026-04-25 03:23 41.83052 140.57244 3479 ft 182 kts 110°
2026-04-25 03:23 41.82671 140.58845 3291 ft 178 kts 112°
2026-04-25 03:23 41.82293 140.60417 3197 ft 177 kts 111°
2026-04-25 03:23 41.81914 140.61991 3023 ft 177 kts 110°
2026-04-25 03:24 41.81541 140.63537 2789 ft 170 kts 110°
2026-04-25 03:24 41.81188 140.65003 2562 ft 161 kts 110°
2026-04-25 03:24 41.80854 140.66387 2361 ft 153 kts 111°
2026-04-25 03:24 41.80529 140.67730 2150 ft 151 kts 112°
2026-04-25 03:25 41.80206 140.69061 1934 ft 150 kts 110°
2026-04-25 03:25 41.79883 140.70395 1737 ft 150 kts 111°
2026-04-25 03:25 41.79563 140.71713 1505 ft 150 kts 110°
2026-04-25 03:25 41.79242 140.73038 1298 ft 149 kts 112°
2026-04-25 03:26 41.78934 140.74310 1084 ft 139 kts 112°
2026-04-25 03:26 41.78636 140.75526 889 ft 136 kts 111°
2026-04-25 03:26 41.78345 140.76718 693 ft 134 kts 111°
2026-04-25 03:26 41.78057 140.77886 550 ft 131 kts 111°
2026-04-25 03:27 41.77781 140.79046 378 ft 131 kts 110°
2026-04-25 03:27 41.77511 140.80194 215 ft 126 kts 112°
2026-04-25 03:27 41.77241 140.81271 120 ft 114 kts 111°
2026-04-25 03:27 41.77043 140.82082 131 ft 64 kts 109°
2026-04-25 03:28 41.76956 140.82443 138 ft 27 kts 107°
2026-04-25 03:28 41.76905 140.82656 141 ft 15 kts 108°
2026-04-25 03:28 41.76927 140.82765 142 ft 12 kts 32°
2026-04-25 03:28 41.77006 140.82802 139 ft 11 kts
2026-04-25 03:29 41.77059 140.82742 138 ft 10 kts 295°
2026-04-25 03:29 41.77081 140.82651 137 ft 10 kts 288°
2026-04-25 03:29 41.77104 140.82554 135 ft 12 kts 288°
2026-04-25 03:29 41.77133 140.82438 132 ft 14 kts 288°
2026-04-25 03:30 41.77164 140.82311 128 ft 15 kts 288°
2026-04-25 03:30 41.77197 140.82173 122 ft 16 kts 288°
2026-04-25 03:30 41.77233 140.82026 121 ft 16 kts 288°
2026-04-25 03:30 41.77263 140.81903 121 ft 12 kts 288°
2026-04-25 03:31 41.77289 140.81797 124 ft 12 kts 288°
2026-04-25 03:31 41.77310 140.81708 120 ft 9 kts 288°
2026-04-25 03:31 41.77327 140.81646 121 ft 5 kts 301°
2026-04-25 03:31 41.77351 140.81644 121 ft 3 kts 19°
2026-04-25 03:32 41.77374 140.81655 122 ft 4 kts 19°
2026-04-25 03:32 41.77405 140.81669 117 ft 6 kts 18°
2026-04-25 03:32 41.77438 140.81683 118 ft 5 kts 17°
2026-04-25 03:32 41.77453 140.81689 117 ft 0 kts 17°